When you browse on this site, cookies collect data to enhance your experience and personalize the content and advertising you see.
Visit our Privacy Policy to learn more. By continuing to use the site, you agree to this use of cookies and data.
  • In Spain
  • List of Countries
  • For 7 days
  • Water Temperature
  • Weather Map
  • Weather Widgets
  • user-avatar
    Login

    Hourly Weather Kyzylorda

    Today, 14 November, Thursday

    Time Temperature Precipitation Wind Pressure Humidity
    00:00 +2°C° 0 mm 2 mps 754 mmHg 42%
    01:00 +2°C° 0 mm 2 mps 754 mmHg 39%
    02:00 +2°C° 0 mm 2 mps 754 mmHg 36%
    03:00 +2°C° 0 mm 2 mps 754 mmHg 34%
    04:00 +1°C° 0 mm 2 mps 754 mmHg 31%
    05:00 +1°C° 0 mm 2 mps 754 mmHg 31%
    06:00 +1°C° 0 mm 2 mps 754 mmHg 31%
    07:00 -1°C° 0 mm 2 mps 754 mmHg 31%
    08:00 +3°C° 0 mm 2 mps 754 mmHg 30%
    09:00 +5°C° 0 mm 2 mps 755 mmHg 28%
    10:00 +7°C° 0 mm 3 mps 755 mmHg 27%
    11:00 +8°C° 0 mm 3 mps 755 mmHg 27%
    12:00 +9°C° 0 mm 3 mps 754 mmHg 28%
    13:00 +9°C° 0 mm 3 mps 754 mmHg 29%
    14:00 +8°C° 0 mm 3 mps 754 mmHg 39%
    15:00 +6°C° 0 mm 2 mps 755 mmHg 49%
    16:00 +5°C° 0 mm 1 mps 755 mmHg 58%
    17:00 +4°C° 0 mm 2 mps 755 mmHg 61%
    18:00 +4°C° 0 mm 2 mps 755 mmHg 63%
    19:00 +2°C° 0 mm 3 mps 755 mmHg 66%
    20:00 +2°C° 0 mm 3 mps 755 mmHg 68%
    21:00 +2°C° 0 mm 3 mps 756 mmHg 71%
    22:00 +1°C° 0 mm 4 mps 756 mmHg 74%
    23:00 0°C° 0 mm 4 mps 756 mmHg 78%

    Tomorrow, 15 November, Friday

    Time Temperature Precipitation Wind Pressure Humidity
    00:00 0°C° 0 mm 4 mps 756 mmHg 81%
    01:00 0°C° 0 mm 4 mps 756 mmHg 85%
    02:00 -1°C° 0 mm 4 mps 757 mmHg 85%
    03:00 -1°C° 0 mm 4 mps 757 mmHg 84%
    04:00 -1°C° 0 mm 4 mps 758 mmHg 84%
    05:00 -1°C° 0 mm 4 mps 758 mmHg 83%
    06:00 -2°C° 0 mm 4 mps 758 mmHg 82%
    07:00 -2°C° 0 mm 4 mps 759 mmHg 81%
    08:00 0°C° 0 mm 5 mps 759 mmHg 69%
    09:00 +2°C° 0 mm 6 mps 760 mmHg 57%
    10:00 +4°C° 0 mm 7 mps 760 mmHg 46%
    11:00 +5°C° 0 mm 7 mps 760 mmHg 45%
    12:00 +5°C° 0 mm 8 mps 760 mmHg 45%
    13:00 +6°C° 0 mm 8 mps 760 mmHg 44%
    14:00 +5°C° 0 mm 7 mps 760 mmHg 46%
    15:00 +4°C° 0 mm 7 mps 760 mmHg 48%
    16:00 +3°C° 0 mm 6 mps 760 mmHg 49%
    17:00 +2°C° 0 mm 6 mps 760 mmHg 50%
    18:00 0°C° 0 mm 7 mps 761 mmHg 50%
    19:00 -1°C° 0 mm 7 mps 761 mmHg 50%
    20:00 -2°C° 0 mm 7 mps 761 mmHg 50%
    21:00 -2°C° 0 mm 7 mps 761 mmHg 49%
    22:00 -3°C° 0 mm 7 mps 761 mmHg 49%
    23:00 -3°C° 0 mm 7 mps 761 mmHg 50%

    Day after tomorrow, 16 November, Saturday

    Time Temperature Precipitation Wind Pressure Humidity
    00:00 -3°C° 0 mm 7 mps 761 mmHg 51%
    01:00 -3°C° 0 mm 7 mps 761 mmHg 52%
    02:00 -4°C° 0 mm 7 mps 761 mmHg 56%
    03:00 -4°C° 0 mm 7 mps 762 mmHg 60%
    04:00 -4°C° 0 mm 7 mps 762 mmHg 64%
    05:00 -4°C° 0 mm 7 mps 762 mmHg 64%
    06:00 -6°C° 0 mm 7 mps 762 mmHg 65%
    07:00 -6°C° 0 mm 8 mps 762 mmHg 66%
    08:00 -4°C° 0 mm 8 mps 762 mmHg 57%
    09:00 -1°C° 0 mm 9 mps 763 mmHg 49%
    10:00 0°C° 0 mm 10 mps 763 mmHg 40%
    11:00 +1°C° 0 mm 10 mps 763 mmHg 37%
    12:00 +2°C° 0 mm 10 mps 763 mmHg 34%
    13:00 +3°C° 0 mm 10 mps 762 mmHg 31%
    14:00 +2°C° 0 mm 9 mps 762 mmHg 32%
    15:00 +1°C° 0 mm 8 mps 762 mmHg 33%
    16:00 +2°C° 0 mm 7 mps 762 mmHg 34%
    17:00 0°C° 0 mm 7 mps 762 mmHg 34%
    18:00 -1°C° 0 mm 7 mps 762 mmHg 33%
    19:00 -2°C° 0 mm 7 mps 763 mmHg 33%
    20:00 -3°C° 0 mm 7 mps 763 mmHg 32%
    21:00 -3°C° 0 mm 6 mps 763 mmHg 31%
    22:00 -4°C° 0 mm 6 mps 763 mmHg 29%
    23:00 -4°C° 0 mm 6 mps 763 mmHg 30%

    17 November, Sunday

    Time Temperature Precipitation Wind Pressure Humidity
    00:00 -4°C° 0 mm 6 mps 763 mmHg 31%
    01:00 -5°C° 0 mm 6 mps 763 mmHg 32%
    02:00 -5°C° 0 mm 6 mps 763 mmHg 34%
    03:00 -6°C° 0 mm 6 mps 763 mmHg 36%
    04:00 -6°C° 0 mm 5 mps 763 mmHg 38%
    05:00 -6°C° 0 mm 5 mps 763 mmHg 40%
    06:00 -7°C° 0 mm 5 mps 763 mmHg 41%
    07:00 -7°C° 0 mm 5 mps 763 mmHg 43%
    08:00 -5°C° 0 mm 5 mps 763 mmHg 37%
    09:00 -2°C° 0 mm 5 mps 764 mmHg 32%
    10:00 +1°C° 0 mm 6 mps 764 mmHg 27%
    11:00 +2°C° 0 mm 5 mps 763 mmHg 25%
    12:00 +5°C° 0 mm 5 mps 763 mmHg 23%
    13:00 +6°C° 0 mm 5 mps 763 mmHg 21%
    14:00 +5°C° 0 mm 5 mps 763 mmHg 23%
    15:00 +4°C° 0 mm 4 mps 762 mmHg 25%
    16:00 +3°C° 0 mm 4 mps 762 mmHg 26%
    17:00 0°C° 0 mm 4 mps 762 mmHg 28%
    18:00 -1°C° 0 mm 4 mps 762 mmHg 30%
    19:00 -2°C° 0 mm 4 mps 762 mmHg 31%
    20:00 -2°C° 0 mm 4 mps 762 mmHg 32%
    21:00 -3°C° 0 mm 4 mps 762 mmHg 32%
    22:00 -3°C° 0 mm 4 mps 762 mmHg 33%
    23:00 -3°C° 0 mm 4 mps 762 mmHg 34%

    18 November, Monday

    Time Temperature Precipitation Wind Pressure Humidity
    00:00 -4°C° 0 mm 4 mps 761 mmHg 34%
    01:00 -4°C° 0 mm 4 mps 761 mmHg 35%
    02:00 -4°C° 0 mm 4 mps 761 mmHg 36%
    03:00 -4°C° 0 mm 4 mps 761 mmHg 37%
    04:00 -4°C° 0 mm 4 mps 761 mmHg 37%
    05:00 -4°C° 0 mm 3 mps 761 mmHg 38%
    06:00 -4°C° 0 mm 3 mps 761 mmHg 38%
    07:00 -4°C° 0 mm 3 mps 761 mmHg 39%
    08:00 -1°C° 0 mm 3 mps 761 mmHg 33%
    09:00 +2°C° 0 mm 3 mps 762 mmHg 28%
    10:00 +4°C° 0 mm 3 mps 762 mmHg 22%
    11:00 +7°C° 0 mm 3 mps 762 mmHg 19%
    12:00 +8°C° 0 mm 3 mps 761 mmHg 16%
    13:00 +10°C° 0 mm 3 mps 761 mmHg 13%
    14:00 +8°C° 0 mm 3 mps 761 mmHg 15%
    15:00 +7°C° 0 mm 3 mps 760 mmHg 17%
    16:00 +4°C° 0 mm 3 mps 760 mmHg 18%
    17:00 +3°C° 0 mm 3 mps 760 mmHg 20%
    18:00 +3°C° 0 mm 2 mps 760 mmHg 22%
    19:00 +2°C° 0 mm 2 mps 760 mmHg 23%
    20:00 +1°C° 0 mm 2 mps 760 mmHg 27%
    21:00 -1°C° 0 mm 2 mps 760 mmHg 30%
    22:00 0°C° 0 mm 1 mps 760 mmHg 33%
    23:00 0°C° 0 mm 1 mps 759 mmHg 34%

    19 November, Tuesday

    Time Temperature Precipitation Wind Pressure Humidity
    00:00 -2°C° 0 mm 2 mps 759 mmHg 35%
    01:00 -2°C° 0 mm 2 mps 758 mmHg 36%
    02:00 -2°C° 0 mm 2 mps 758 mmHg 37%
    03:00 -2°C° 0 mm 2 mps 758 mmHg 37%
    04:00 -2°C° 0 mm 2 mps 758 mmHg 38%
    05:00 -2°C° 0 mm 2 mps 758 mmHg 43%
    06:00 -2°C° 0 mm 2 mps 758 mmHg 47%
    07:00 -2°C° 0 mm 2 mps 758 mmHg 52%
    08:00 +1°C° 0 mm 2 mps 758 mmHg 47%
    09:00 +4°C° 0 mm 2 mps 758 mmHg 41%
    10:00 +6°C° 0 mm 2 mps 758 mmHg 36%
    11:00 +7°C° 0 mm 3 mps 757 mmHg 34%
    12:00 +8°C° 0 mm 3 mps 757 mmHg 31%
    13:00 +10°C° 0 mm 4 mps 756 mmHg 29%
    14:00 +7°C° 0 mm 4 mps 756 mmHg 33%
    15:00 +7°C° 0 mm 3 mps 756 mmHg 37%
    16:00 +5°C° 0 mm 3 mps 755 mmHg 41%
    17:00 +4°C° 0 mm 3 mps 755 mmHg 45%
    18:00 +3°C° 0 mm 3 mps 755 mmHg 49%
    19:00 +3°C° 0 mm 3 mps 755 mmHg 54%
    20:00 +2°C° 0 mm 3 mps 755 mmHg 58%
    21:00 +2°C° 0 mm 3 mps 755 mmHg 63%
    22:00 +1°C° 0 mm 3 mps 754 mmHg 67%
    23:00 +1°C° 0 mm 3 mps 754 mmHg 71%
    Show more